Weather History for Penticton, BC

Change the Weather History Date:

Saturday, September 21, 2013

  Actual Average Record
Temperature  
Mean Temperature 60 °F -  
Max Temperature 71 °F 62 °F 82 °F (1999)
Min Temperature 48 °F 40 °F 37 °F (1996)
Degree Days  
Heating Degree Days 6    
Growing Degree Days 10 (Base 50)    
Moisture  
Dew Point 49 °F    
Average Humidity 67    
Maximum Humidity 88    
Minimum Humidity 45    
Precipitation  
Precipitation 0.04 in 0.02 in - ()
Sea Level Pressure  
Sea Level Pressure 29.61 in    
Wind  
Wind Speed 4 mph ()    
Max Wind Speed 16 mph    
Max Gust Speed 36 mph    
Visibility 14.8 miles    
Events Rain , Thunderstorm    
Averages and records for this station are not official NWS values.
T = Trace of Precipitation, MM = Missing Value Source: Averaged Metar Reports

Daily Weather History Graph

Daily Weather History Graph

Search for Another Location

Airport:

Trip Planner

Search our weather history database for the weather conditions in past years. The results will help you decide how hot, cold, wet, or windy it might be!

Date:

Astronomy

Sep. 21, 2013 Rise Set
Actual Time 6:43 AM PDT 6:57 PM PDT
Civil Twilight 6:12 AM PDT 7:29 PM PDT
Nautical Twilight 5:34 AM PDT 8:07 PM PDT
Astronomical Twilight 4:55 AM PDT 8:46 PM PDT
Moon 7:52 PM PDT (9/21) 9:24 AM PDT (9/21)
Length of Visible Light 13h 17m
Length of Day
12h 13m
Waning Gibbous, 94% of the Moon is Illuminated
Sep 21
Waning Gibbous
Sep 26
Last Quarter
Oct 4
New
Oct 11
First Quarter
Oct 18
Full

Hourly Weather History & Observations

Time (PDT) Temp. Dew Point Humidity Pressure Visibility Wind Dir Wind Speed Gust Speed Precip Events Conditions
12:00 AM 51.8 °F 42.8 °F 71% 29.56 in 15.0 mi NNW 3.5 mph - N/A   Mostly Cloudy
1:00 AM 51.8 °F 44.6 °F 76% 29.57 in 15.0 mi NNE 3.5 mph - N/A   Mostly Cloudy
2:00 AM 50.0 °F 44.6 °F 82% 29.57 in 15.0 mi Calm Calm - N/A   Mostly Cloudy
3:00 AM 53.6 °F 46.4 °F 77% 29.56 in 15.0 mi NE 4.6 mph - N/A   Overcast
4:00 AM 51.8 °F 46.4 °F 82% 29.55 in 15.0 mi Calm Calm - N/A   Overcast
5:00 AM 54 °F 48 °F 74% 29.57 in 15 mi Calm Calm - -   Overcast
5:00 AM 53.6 °F 48.2 °F 82% 29.57 in 15.0 mi Variable 3.5 mph 35.7 mph N/A   Overcast
6:00 AM 55.4 °F 48.2 °F 77% 29.56 in 15.0 mi NW 4.6 mph - N/A   Overcast
6:40 AM 57.2 °F 50.0 °F 77% 29.59 in 15.0 mi SSE 2.3 mph - N/A Rain Light Rain Showers
7:00 AM 57.2 °F 51.8 °F 82% 29.61 in 10.0 mi SW 4.6 mph - N/A Rain Light Rain Showers
8:00 AM 55.4 °F 51.8 °F 88% 29.62 in 15.0 mi NNW 8.1 mph - N/A   Mostly Cloudy
9:00 AM 57.2 °F 53.6 °F 88% 29.64 in 15.0 mi WSW 4.6 mph - N/A   Mostly Cloudy
10:00 AM 57.2 °F 51.8 °F 82% 29.66 in 15.0 mi North 4.6 mph - N/A   Mostly Cloudy
11:00 AM 61 °F 51 °F 60% 29.65 in 15 mi NNW 2.3 mph - -   Partly Cloudy
11:00 AM 60.8 °F 50.0 °F 68% 29.65 in 15.0 mi NW 2.3 mph - N/A   Mostly Cloudy
12:00 PM 66.2 °F 50.0 °F 56% 29.64 in 15.0 mi ENE 3.5 mph - N/A   Mostly Cloudy
1:00 PM 66.2 °F 48.2 °F 52% 29.62 in 15.0 mi NNW 4.6 mph - N/A   Scattered Clouds
2:00 PM 71.6 °F 50.0 °F 46% 29.60 in 15.0 mi NNW 4.6 mph - N/A   Scattered Clouds
3:00 PM 68.0 °F 48.2 °F 49% 29.60 in 15.0 mi South 8.1 mph - N/A   Mostly Cloudy
3:18 PM 66.2 °F 50.0 °F 56% 29.60 in 15.0 mi South 13.8 mph - N/A Thunderstorm Thunderstorm
3:26 PM 66.2 °F 50.0 °F 56% 29.60 in 15.0 mi SSW 16.1 mph 26.5 mph N/A Rain , Thunderstorm Light Thunderstorms and Rain
4:00 PM 66.2 °F 51.8 °F 60% 29.60 in 15.0 mi SSW 11.5 mph - N/A Rain Light Rain Showers
4:23 PM 68.0 °F 50.0 °F 52% 29.59 in 15.0 mi SSE 9.2 mph - N/A   Scattered Clouds
5:00 PM 67 °F 50 °F 45% 29.59 in 15 mi South 10.4 mph - -   Partly Cloudy
5:00 PM 68.0 °F 50.0 °F 52% 29.59 in 15.0 mi South 10.4 mph - N/A   Scattered Clouds
6:00 PM 64.4 °F 50.0 °F 59% 29.60 in 15.0 mi SSW 5.8 mph - N/A   Mostly Cloudy
7:00 PM 64.4 °F 48.2 °F 56% 29.60 in 15.0 mi SSE 10.4 mph - N/A   Mostly Cloudy
8:00 PM 62.6 °F 48.2 °F 59% 29.63 in 15.0 mi Calm Calm - N/A   Mostly Cloudy
9:00 PM 60.8 °F 48.2 °F 63% 29.65 in 15.0 mi NNW 5.8 mph - N/A   Mostly Cloudy
10:00 PM 59.0 °F 46.4 °F 63% 29.64 in 15.0 mi North 4.6 mph - N/A   Mostly Cloudy
11:00 PM 52 °F 46 °F 72% 29.64 in 15 mi NNW 3.5 mph - -   Mostly Cloudy
11:00 PM 51.8 °F 46.4 °F 82% 29.64 in 15.0 mi NNW 4.6 mph - N/A   Mostly Cloudy